[[{"header":{"parameterUnit":"m.s-1","parameterCategory":1,"la1":30.2991,"la2":30.254,"lo1":-89.0895,"lo2":-89.0444,"dy":0.0017,"dx":0.0017,"nx":28,"ny":28,"refTime":"2024-05-08T21:00:00:Z","depth":0,"parameterNumber":2,"parameterNumberName":"U-component_of_WINDS"},"data":[0,0,0,0,0,0,0,0,0,0,0,0,0,0,0,0,0,0,0,0,0,0,0,0,0,0,0,0,0,0,0,0,0,0,0,0,0,0,0,0,0,0,0,0,0,0,0,0,0,0,0,0,0,0,0,0,0,0,0.9846,0.9846,0,0.9872,0.9873,0.9873,0.985,0.9849,0.9848,0.9847,0.9874,0.9875,0.9877,0,0,0,0,0,0,0,0,0,0,0,0,0,0.9773,0.9775,0.9846,0.9846,0.9847,0.9872,0.9873,0.9873,0.985,0.9849,0.9847,0.9846,0.9873,0.9875,0.9877,0,0,0,0,0,0,0,0,0,0,0,0,0,0.9803,0.9775,0.9846,0.9838,0.9838,0.9872,0.9873,0.9873,0.985,0.9848,0.9847,0.9846,0.9873,0.9875,0.9877,0.9921,0,0,0.9885,0.9886,0,0,0,0,0,0,0,0,0.9801,0.9806,0.9839,0.9839,0.9838,0.9856,0.9857,0.9889,0.985,0.9845,0.9847,0.9845,0.9869,0.9872,0.988,0.9922,0.9924,0.9885,0.9886,0.9887,0.9888,0,0,0,0,0,0,0,0.9799,0.9804,0.9856,0.9839,0.9839,0.9833,0.9835,0.9863,0.9865,0.9846,0.9844,0.9847,0.9869,0.9878,0.988,0.9924,0.9885,0.9887,0.9889,0.989,1.0001,1.0003,0,0,0,0,0,0,0.9798,0.9803,0.9856,0.9857,0.9816,0.9835,0.9838,0.9852,0.9865,0.9865,0.9849,0.9846,0.9874,0.9878,0.9881,0.9931,0.9887,0.989,0.9891,1.0,1.0001,1.0003,0,0,0,0,0,0,0.9797,0.9803,0.9855,0.983,0.9836,0.9838,0.9854,0.9853,0.9862,0.9867,0.9867,0.9858,0.9873,0.9878,0.9911,0.9932,0.9891,0.9893,0.9998,1.0,1.0002,1.0034,0,0,0,0,0,0,0.9795,0.9803,0.982,0.983,0.9837,0.9884,0.9855,0.9855,0.9866,0.9863,0.9875,0.9876,0.9872,0.9907,0.9913,0.9935,0.9895,0.9996,0.9999,1.0002,1.0031,1.0037,1.0042,0,0,0,0,0,0.9792,0.9828,0.9821,0.9828,0.9859,0.9886,0.989,0.9885,0.9868,0.9885,0.9888,0.9875,0.9929,0.9911,0.9917,0.994,0.9995,0.9998,1.0001,1.0028,1.0035,1.0042,0,0,0,0,0,0,0.9821,0.983,0.9822,0.9862,0.9873,0.9882,0.9903,0.9893,0.9909,0.9906,0.99,0.9902,0.9937,0.9942,0.9922,0.9982,0.9959,0.9964,0.9977,0.9984,0.9989,0.9987,0.9897,0,0,0,0,0,0.9832,0.9854,0.986,0.9895,0.9901,0.9901,0.9913,0.9908,0.9919,0.9924,0.9929,0.994,0.9959,0.9972,0.999,1.0031,1.0032,1.005,1.0055,1.006,1.0064,1.0084,1.0091,1.0014,1.0014,1.0014,0,0,0.9856,0.9863,0.9877,0.9901,0.9909,0.993,0.9905,0.993,0.9945,0.9928,0.9958,0.9963,0.9975,1.0011,1.0028,1.0016,1.0085,1.0064,1.0068,1.0069,1.0088,1.0095,1.0102,1.0017,1.0016,1.0016,0,0,0.9908,0.9917,0.9946,0.9954,0.9966,0.9966,0.9972,0.9982,0.9984,1.0015,1.0001,1.0019,1.0053,1.0061,1.007,1.0124,1.0112,1.013,1.0159,1.0178,1.0184,1.0189,1.0207,1.0213,1.0134,1.0134,1.0134,0,0.9936,0.9968,0.9962,0.9987,0.9997,0.9981,1.0009,1.0018,1.0036,1.0043,1.003,1.007,1.0077,1.0114,1.0127,1.0135,1.0142,1.0128,1.0184,1.0189,1.0194,1.021,1.0217,1.0136,1.0136,1.0136,1.0135,0,0.9999,1.0022,1.0044,1.006,1.0073,1.01,1.0097,1.011,1.0104,1.0104,1.0135,1.0143,1.0161,1.017,1.0164,1.0206,1.0198,1.0185,1.0161,1.0203,1.0218,1.0225,1.0139,1.0138,1.0138,1.0137,0,0,1.0072,1.0083,1.0091,1.0097,1.0109,1.0126,1.0151,1.0168,1.0179,1.0191,1.0211,1.0239,1.0226,1.0236,1.0231,1.0248,1.0288,1.0233,1.0233,1.0241,1.0331,1.034,1.0348,1.0281,1.0282,1.0283,1.033,0,1.0124,1.0167,1.0162,1.0203,1.0222,1.0207,1.0228,1.0237,1.0238,1.0254,1.0255,1.0274,1.0256,1.0262,1.0278,1.028,1.0306,1.0276,1.0298,1.0299,1.0294,1.0356,1.0366,1.041,1.0336,1.0337,1.0338,0,1.019,1.0204,1.0247,1.0253,1.0261,1.028,1.0294,1.031,1.0319,1.0319,1.0329,1.032,1.0344,1.0321,1.0353,1.0333,1.0341,1.0343,1.0345,1.0346,1.032,1.0357,1.0424,1.043,1.0347,1.0347,1.0346,0,1.0236,1.0265,1.0294,1.03,1.0309,1.0322,1.0326,1.0334,1.0344,1.0357,1.0363,1.0378,1.0386,1.0398,1.0393,1.0377,1.0425,1.0403,1.0424,1.0424,1.0434,1.0434,1.0502,1.0442,1.0442,1.0442,1.0442,0,1.0294,1.032,1.0314,1.0332,1.036,1.0353,1.0382,1.0384,1.0391,1.0407,1.0396,1.0412,1.0405,1.0421,1.0418,1.0443,1.0448,1.0447,1.0445,1.0447,1.0447,1.0452,1.0448,1.0444,1.0443,1.0443,1.0443,0,1.035,1.0347,1.0377,1.0382,1.0384,1.0405,1.0408,1.0424,1.0424,1.0445,1.045,1.0449,1.0466,1.0463,1.0483,1.048,1.0512,1.0508,1.0509,1.0507,1.0528,1.0526,1.0601,1.061,1.0546,1.0547,1.0547,0,1.0386,1.0406,1.0412,1.0422,1.0427,1.0444,1.0454,1.0448,1.0458,1.0469,1.0483,1.0499,1.0512,1.054,1.0541,1.0555,1.055,1.0575,1.0552,1.0552,1.0548,1.0546,1.0547,1.058,1.058,1.0581,1.0581,0,1.045,1.0447,1.0461,1.0475,1.0486,1.0497,1.0506,1.0515,1.0509,1.0522,1.0539,1.0548,1.0567,1.0583,1.0596,1.06,1.0589,1.0589,1.0594,1.0596,1.0595,1.0593,1.052,1.0587,1.0586,1.0586,1.0586,1.0585,1.0496,1.0511,1.0518,1.0534,1.054,1.0548,1.0563,1.0563,1.0577,1.0592,1.0587,1.0606,1.0613,1.0629,1.0634,1.0649,1.0639,1.0648,1.065,1.0651,1.0653,1.0593,1.0651,1.0651,1.0651,1.0651,1.0651,0,1.0557,1.056,1.0575,1.0587,1.0599,1.0588,1.0597,1.0608,1.0625,1.0632,1.0644,1.0663,1.0677,1.0679,1.0692,1.0703,1.0699,1.0707,1.0705,1.0706,1.0662,1.0655,1.071,1.071,1.071,1.071,1.071,1.071,1.059,1.0616,1.0613,1.0641,1.0644,1.0662,1.0668,1.0675,1.068,1.0702,1.0714,1.0714,1.0719,1.0732,1.0745,1.0745,1.0749,1.0759,1.0757,1.0715,1.0709,1.0704,1.0697,1.0761,1.0761,1.08,1.08,1.0801]},{"header":{"parameterUnit":"m.s-1","parameterCategory":1,"la1":30.2991,"la2":30.254,"lo1":-89.0895,"lo2":-89.0444,"dy":0.0017,"dx":0.0017,"nx":28,"ny":28,"refTime":"2024-05-08T21:00:00:Z","depth":0,"parameterNumber":3,"parameterNumberName":"V-component_of_WINDS"},"data":[0,0,0,0,0,0,0,0,0,0,0,0,0,0,0,0,0,0,0,0,0,0,0,0,0,0,0,0,0,0,0,0,0,0,0,0,0,0,0,0,0,0,0,0,0,0,0,0,0,0,0,0,0,0,0,0,0,0,6.1108,6.1109,0,6.1142,6.1142,6.1143,6.1091,6.1089,6.1088,6.1086,6.1116,6.1119,6.1121,0,0,0,0,0,0,0,0,0,0,0,0,0,6.0995,6.0997,6.1108,6.1109,6.1109,6.1142,6.1142,6.1143,6.1092,6.1089,6.1087,6.1085,6.1115,6.1118,6.1121,0,0,0,0,0,0,0,0,0,0,0,0,0,6.1038,6.0998,6.1108,6.1088,6.1086,6.1142,6.1142,6.1143,6.1092,6.1089,6.1087,6.1084,6.1114,6.1118,6.1122,6.1198,0,0,6.1133,6.1135,0,0,0,0,0,0,0,0,6.1035,6.1042,6.109,6.1089,6.1088,6.111,6.1113,6.1161,6.1093,6.109,6.1086,6.1083,6.1116,6.1119,6.1131,6.1199,6.1201,6.1133,6.1136,6.1137,6.1138,0,0,0,0,0,0,0,6.1032,6.104,6.1122,6.1091,6.1089,6.1075,6.1078,6.1122,6.1117,6.109,6.1086,6.1091,6.1115,6.1128,6.1132,6.1201,6.1133,6.1137,6.1139,6.114,6.1331,6.1334,0,0,0,0,0,0,6.1033,6.1038,6.112,6.1123,6.1055,6.1079,6.1083,6.1105,6.1117,6.1116,6.1093,6.1088,6.1123,6.1127,6.1133,6.1221,6.1137,6.1141,6.1143,6.1329,6.1332,6.1335,0,0,0,0,0,0,6.103,6.1041,6.1119,6.1079,6.1088,6.1084,6.111,6.1107,6.1121,6.1119,6.1118,6.1108,6.1121,6.1127,6.1182,6.1222,6.1142,6.1146,6.1325,6.133,6.1334,6.1401,0,0,0,0,0,0,6.1027,6.104,6.107,6.1081,6.1091,6.117,6.1112,6.111,6.1128,6.1122,6.1133,6.1132,6.1119,6.1177,6.1186,6.1225,6.1149,6.1322,6.1327,6.1332,6.1395,6.1407,6.1417,0,0,0,0,0,6.1024,6.1087,6.1072,6.1082,6.1129,6.1172,6.1178,6.1163,6.1131,6.116,6.1159,6.1132,6.1216,6.1183,6.1192,6.1234,6.1319,6.1326,6.1332,6.139,6.1404,6.1417,0,0,0,0,0,0,6.108,6.1088,6.1071,6.1141,6.1156,6.1163,6.12,6.1179,6.1203,6.1196,6.1176,6.1179,6.1237,6.1241,6.1204,6.1307,6.1262,6.1271,6.1303,6.1317,6.1327,6.1325,6.1152,0,0,0,0,0,6.1101,6.1137,6.1142,6.1202,6.1211,6.1204,6.1223,6.121,6.1225,6.1231,6.1234,6.1248,6.1277,6.1297,6.1325,6.1395,6.1396,6.1428,6.1439,6.1448,6.1456,6.1492,6.1506,6.1356,6.1356,6.1356,0,0,6.1144,6.1153,6.1177,6.1214,6.1224,6.1261,6.121,6.1251,6.1277,6.1236,6.1288,6.1291,6.1305,6.1368,6.1396,6.1373,6.1497,6.1457,6.1464,6.1466,6.15,6.1514,6.1527,6.1361,6.136,6.1359,0,0,6.124,6.1252,6.1303,6.1314,6.1332,6.1327,6.1339,6.1349,6.135,6.1402,6.1372,6.1402,6.1454,6.1465,6.1477,6.1577,6.1552,6.1587,6.1644,6.1679,6.1691,6.1701,6.1736,6.1748,6.1594,6.1594,6.1594,0,6.1291,6.1346,6.1331,6.1374,6.139,6.1357,6.1407,6.1419,6.1443,6.1455,6.1429,6.1493,6.15,6.1564,6.1589,6.16,6.1612,6.1585,6.1691,6.1701,6.171,6.1743,6.1756,6.1598,6.1598,6.1597,6.1597,0,6.1407,6.1445,6.1484,6.151,6.1531,6.1577,6.1568,6.159,6.1576,6.1573,6.1625,6.1633,6.1661,6.1675,6.1661,6.1737,6.1722,6.1694,6.1648,6.1729,6.1759,6.1771,6.1604,6.1603,6.1601,6.16,0,0,6.154,6.1557,6.1571,6.1582,6.1598,6.1626,6.1671,6.1699,6.1718,6.1736,6.1771,6.1816,6.179,6.1804,6.179,6.1822,6.1899,6.179,6.179,6.1809,6.1981,6.2002,6.2017,6.1883,6.1885,6.1887,6.198,0,6.1635,6.1713,6.17,6.1775,6.1809,6.1777,6.1815,6.1828,6.1827,6.1854,6.1852,6.1883,6.1847,6.1855,6.1885,6.1883,6.1933,6.1877,6.1914,6.1915,6.191,6.2032,6.2054,6.2141,6.1992,6.1994,6.1995,0,6.1757,6.178,6.1859,6.1868,6.1882,6.1917,6.1941,6.1968,6.1982,6.1978,6.1994,6.1975,6.2017,6.1971,6.2028,6.199,6.2004,6.2006,6.2009,6.2011,6.1959,6.2036,6.2169,6.2182,6.2014,6.2012,6.2011,0,6.1844,6.1895,6.1948,6.1959,6.1972,6.1997,6.2003,6.2014,6.2031,6.2052,6.2063,6.2088,6.2101,6.212,6.2108,6.2076,6.2166,6.212,6.2163,6.2164,6.2183,6.2182,6.2318,6.2194,6.2194,6.2194,6.2194,0,6.1951,6.2,6.1988,6.202,6.2073,6.2058,6.211,6.2112,6.2122,6.2153,6.2127,6.2157,6.2139,6.2166,6.2157,6.2205,6.2211,6.2208,6.2205,6.221,6.221,6.2218,6.2211,6.2197,6.2197,6.2196,6.2195,0,6.2058,6.2052,6.2107,6.2115,6.2118,6.2157,6.2163,6.2192,6.2189,6.2228,6.2237,6.2231,6.2262,6.2252,6.2285,6.2278,6.2339,6.2328,6.2334,6.2331,6.2375,6.2371,6.2521,6.2539,6.2404,6.2406,6.2407,0,6.2126,6.2163,6.2175,6.2195,6.2203,6.2235,6.2253,6.2238,6.2257,6.2275,6.2302,6.2331,6.2353,6.2404,6.2402,6.2427,6.2416,6.2467,6.2419,6.2423,6.2415,6.2413,6.2416,6.2476,6.2478,6.2479,6.248,0,6.2247,6.2242,6.227,6.2296,6.2318,6.2338,6.2355,6.2372,6.2358,6.2381,6.2413,6.243,6.2464,6.2493,6.2515,6.252,6.2497,6.2495,6.2506,6.2511,6.2513,6.2511,6.2359,6.2491,6.249,6.2489,6.2489,6.2488,6.2336,6.2367,6.238,6.2411,6.2422,6.2439,6.2466,6.2467,6.2493,6.2521,6.251,6.2547,6.2558,6.2586,6.2594,6.2621,6.2601,6.2617,6.2621,6.2625,6.263,6.251,6.2625,6.2625,6.2624,6.2624,6.2624,0,6.2455,6.2461,6.249,6.2515,6.2539,6.2517,6.2534,6.2555,6.2588,6.2601,6.2624,6.266,6.2687,6.2688,6.2713,6.2734,6.2725,6.2741,6.2739,6.274,6.2647,6.2635,6.2749,6.2749,6.2749,6.2749,6.2749,6.2749,6.2519,6.257,6.2566,6.2621,6.2627,6.2664,6.2675,6.269,6.27,6.2742,6.2765,6.2765,6.2772,6.2798,6.2821,6.2821,6.283,6.2851,6.2846,6.2759,6.2747,6.2735,6.2723,6.2854,6.2854,6.2937,6.2937,6.2938]}]]